AirNav   Pilot Hours Calculator
 
 736 users online  

KPCW Erie-Ottawa International Airport
Port Clinton, Ohio, USA

GOING TO PORT CLINTON?


FAA INFORMATION EFFECTIVE 07 NOVEMBER 2019

Location

FAA Identifier: PCW
Lat/Long: 41-30-58.6000N 082-52-10.2000W
41-30.976667N 082-52.170000W
41.5162778,-82.8695000
(estimated)
Elevation: 590.1 ft. / 179.9 m (surveyed)
Variation: 07W (2010)
From city: 3 miles E of PORT CLINTON, OH
Time zone: UTC -5 (UTC -4 during Daylight Saving Time)
Zip code: 43452

Airport Operations

Airport use: Open to the public
Activation date: 07/1971
Control tower: no
ARTCC: CLEVELAND CENTER
FSS: CLEVELAND FLIGHT SERVICE STATION
NOTAMs facility: CLE (NOTAM-D service available)
Attendance: 0700-1800
Wind indicator: lighted
Segmented circle: no
Lights: ACTVT REIL RWY 09 & 27; PAPI RWY 09 & 27; HIRL RWY 09/27; MIRL RWY 18/36 - CTAF.
Beacon: white-green (lighted land airport)
Operates sunset to sunrise.
International operations: customs landing rights airport

Airport Communications

CTAF/UNICOM: 122.8
WX AWOS-3: 118.775 (419-734-9955)
CLEVELAND APPROACH: 126.35
CLEVELAND DEPARTURE: 126.35
WX AWOS-3 at S24 (15 nm SW): 119.575 (419-547-6932)

Nearby radio navigation aids

VOR radial/distance  VOR name  Freq  Var
DJBr292/33.2DRYER VOR/DME113.6005W
VWVr086/34.8WATERVILLE VOR/DME113.1002W

 
NDB name  Hdg/Dist  Freq  Var  ID
PORT CLINTONat field42307WPCW .--. -.-. .--
TIFFIN037/29.726905WTII - .. ..
GROSSE ILE167/37.341907WRYS .-. -.-- ...

Airport Services

Fuel available: 100LL JET-A JET-A+
Parking: hangars and tiedowns
Airframe service: MINOR
Powerplant service: MINOR
Bottled oxygen: NONE
Bulk oxygen: NONE

Runway Information

Runway 9/27

Dimensions: 5646 x 100 ft. / 1721 x 30 m
Surface: asphalt/grooved, in good condition
Weight bearing capacity: 
Single wheel: AUW-100
Runway edge lights: high intensity
Runway edge markings: RWY 09/27: MARKINGS FADED.
RUNWAY 9  RUNWAY 27
Latitude: 41-30.961708N41-31.081315N
Longitude: 082-52.900140W082-51.673483W
Elevation: 588.7 ft.588.2 ft.
Traffic pattern: leftleft
Runway heading: 090 magnetic, 083 true270 magnetic, 263 true
Displaced threshold: no201 ft.
Declared distances: TORA:5646 TODA:5646 ASDA:5161 LDA:5161TORA:5646 TODA:5646 ASDA:5646 LDA:5445
Markings: nonprecision, in poor conditionnonprecision, in poor condition
Visual slope indicator: 4-light PAPI on left (3.00 degrees glide path)4-light PAPI on left (3.00 degrees glide path)
Runway end identifier lights: yesyes
Touchdown point: yes, no lightsyes, no lights
Obstructions: 70 ft. tree, 1800 ft. from runway, 230 ft. right of centerline, 22:1 slope to clear50 ft. tree, 1350 ft. from runway, 23:1 slope to clear

Runway 18/36

Dimensions: 4002 x 75 ft. / 1220 x 23 m
Surface: asphalt, in excellent condition
Runway edge lights: medium intensity
RUNWAY 18  RUNWAY 36
Latitude: 41-31.241588N41-30.583033N
Longitude: 082-52.019652W082-51.986897W
Elevation: 586.1 ft.589.0 ft.
Traffic pattern: leftleft
Runway heading: 185 magnetic, 178 true005 magnetic, 358 true
Markings: basic, in good conditionbasic, in good condition
Runway end identifier lights: nono
Touchdown point: yes, no lightsyes, no lights
Obstructions: 45 ft. trees, 1075 ft. from runway, 19:1 slope to clear70 ft. trees, 1450 ft. from runway, 250 ft. both sides of centerline, 17:1 slope to clear

Airport Ownership and Management from official FAA records

Ownership: Publicly-owned
Owner: ERIE OTTAWA ARPT AUTH
3255 E STATE ROAD
PORT CLINTON, OH 43452
Phone 419-734-6297
Manager: STAN GEBHARDT
3255 EAST STATE RD
PORT CLINTON, OH 43452
Phone 419-734-6297

Airport Operational Statistics

Aircraft based on the field: 81
Single engine airplanes: 61
Multi engine airplanes: 13
Jet airplanes: 4
Helicopters: 3
    
Aircraft operations: avg 148/day *
46% local general aviation
28% transient general aviation
26% air taxi
<1% military
* for 12-month period ending 15 September 2017

Additional Remarks

RWY 09/27 IS PREFERRED WHEN WINDS ARE LIGHT AND VRBL.
TAXILANE A CLSD TO ACFT WITH WINGSPAN MORE THAN 49 FT.
BIRDS & OTR WILDLIFE ON & INVOF APRT
FOR CD CTC CLEVELAND APCH AT 216-352-2323
CUST AVBL 24 HRS 7 DAYS PER WEEK. REQ MUST BE MADE PRIOR TO ARR. LCL OFC 419-732-4446.

Instrument Procedures

NOTE: All procedures below are presented as PDF files. If you need a reader for these files, you should download the free Adobe Reader.

NOT FOR NAVIGATION. Please procure official charts for flight.
FAA instrument procedures published for use from 07 November 2019 at 0901Z to 05 December 2019 at 0900Z.

 
IAPs - Instrument Approach Procedures
RNAV (GPS) RWY 09 **CHANGED**   download (187KB)
RNAV (GPS) RWY 27 **CHANGED**   download (216KB)
NDB RWY 27 **CHANGED**   download (224KB)
NOTE: Special Alternate Minimums apply   download (37KB)
NOTE: Special Take-Off Minimums/Departure Procedures apply   download (237KB)

Other nearby airports with instrument procedures:

S24 - Sandusky County Regional Airport (15 nm SW)
14G - Fremont Airport (17 nm SW)
5A1 - Norwalk-Huron County Airport (22 nm SE)
KTDZ - Toledo Executive Airport (28 nm W)
8G1 - Willard Airport (29 nm S)
 
Loc | Ops | Rwys | IFR | FBO | Links
Com | Nav | Svcs | Stats | Notes
Area around KPCW (Erie-Ottawa International Airport)
 
Road maps at: MapQuest Bing Google
 
Aerial photo
WARNING: Photo may not be current or correct
Aerial photo of KPCW (Erie-Ottawa International Airport)
Photo by Tal Reichert
Photo taken 29-Jul-2012
looking northeast.

Do you have a better or more recent aerial photo of Erie-Ottawa International Airport that you would like to share? If so, please send us your photo.

 
Sectional chart

 
Airport distance calculator
Flying to Erie-Ottawa International Airport? Find the distance to fly.

From to KPCW

Sunrise and sunset
Times for 11-Nov-2019
 Local
(UTC-5)
 Zulu
(UTC)
Morning civil twilight06:4711:47
Sunrise07:1612:16
Sunset17:1522:15
Evening civil twilight17:4422:44

Current date and time
Zulu (UTC)  12-Nov-2019 03:40:36
Local (UTC-5)  11-Nov-2019 22:40:36
 
METAR
KPCW 120315Z AUTO 1SM -SN BKN004 OVC008 M01/M02 A3005 RMK AO2
TAF
KTOL 
42nm W 
120151Z 1202/1224 34012G20KT 2SM -SN BR OVC022 FM120300 34012G20KT 5SM -SHSN BR OVC030 FM121000 32010KT P6SM BKN035 FM122200 30008KT P6SM SCT110
KMFD 
45nm S 
120213Z 1202/1224 35012G20KT 2SM -SN BR OVC005 TEMPO 1202/1204 1/2SM SN FG OVC003 FM120400 33012G20KT 2SM -SN BR OVC003 TEMPO 1207/1208 1/2SM SN FG OVC001 FM120800 32011KT 5SM -SN BR OVC015 TEMPO 1208/1211 2SM -SHSN BR OVC006 FM121600 30013KT P6SM BKN015 FM121700 31013G21KT P6SM BKN015
CYQG 
46nm N 
111738Z 1118/1218 01010G20KT 1SM -SN VV006 TEMPO 1118/1203 3SM -SN SCT008 OVC025 FM120300 34010KT P6SM -SN FEW008 OVC025 TEMPO 1203/1209 11/2SM -SHSN BKN008 OVC012 FM120900 31012KT P6SM OVC030 TEMPO 1209/1215 4SM -SHSN OVC020 FM121500 31015G25KT P6SM BKN030 BKN060 PROB30 1215/1218 2SM -SHSN OVC015 RMK FCST BASED ON AUTO OBS. NXT FCST BY 120000Z
KCLE 
46nm E 
120134Z 1202/1306 02014G24KT 3SM -SN BR OVC008 TEMPO 1202/1206 3/4SM -SN BR OVC006 FM120600 35012G21KT 3SM -SHSN BR OVC010 FM121100 33011G20KT 5SM -SHSN BR OVC025 FM121800 31015G25KT 6SM -SHSN BR BKN020 FM130000 31011G22KT P6SM BKN040
KFDY 
47nm SW 
112231Z 1123/1218 34012G18KT 1SM -SN BR OVC010 TEMPO 1123/1203 1/2SM SN FG OVC006 FM120300 35012KT 1SM -SN OVC003 TEMPO 1203/1205 1/2SM SN FM120500 33012KT P6SM OVC008 FM121200 31010KT P6SM OVC015
KDTW 
48nm NW 
112027Z 1120/1224 36013KT 1/2SM SN VV004 TEMPO 1121/1123 1SM -SN OVC008 FM112300 36010KT 2SM -SN OVC008 FM120200 36010KT 4SM -SHSN OVC015 FM120400 33013KT P6SM OVC025 TEMPO 1204/1208 4SM -SN OVC015 FM120800 30010KT P6SM BKN025 OVC040 FM121300 33013KT P6SM SCT025 BKN040
NOTAMs
Click for the latest NOTAMs
NOTAMs are issued by the DoD/FAA and will open in a separate window not controlled by AirNav.

 

 
 

FBO, Fuel Providers, and Aircraft Ground Support

  
 Business Name 
 
 Contact 
 
 Services / Description 
 
Fuel Prices
 
Comments
  
 Erie Ottawa International Airport Authority
419-734-6297
[web site]
[email]
Aviation fuel, Aircraft parking (ramp or tiedown), Hangars, GPU / Power cart, Passenger terminal and lounge, Aviation museum, Rental cars, ...
 
U.S. Government AIR Card   U.S. Customs Service   WingPoints™ Rewards   Crew cars  
 
More info about Erie Ottawa International Airport Authority
Phillips 66
100LL Jet A
FS $5.45 $4.61 
SS $5.20 --- 
 Updated 06-Nov-2019
 
   8 read write
FS=Full service
SS=Self service
Update Fuel Prices
 

Would you like to see your business listed on this page?

 If your business provides an interesting product or service to pilots, flight crews, aircraft, or users of the Erie-Ottawa International Airport, you should consider listing it here.  To start the listing process, click on the button below
 
Add a business
 

Other Pages about Erie-Ottawa International Airport

www.portclintonairport.com
 
Update a link
 
Copyright © AirNav, LLC. All rights reserved. Privacy Policy  Contact